TimePDT,TemperatureF,Dew PointF,Humidity,Sea Level PressureIn,VisibilityMPH,Wind Direction,Wind SpeedMPH,Gust SpeedMPH,PrecipitationIn,Events,Conditions,WindDirDegrees,DateUTC
12:58 AM,53.1,33.8,48,29.85,10.0,WSW,6.9,-,N/A,,Clear,250,2013-07-12 07:58:00
1:58 AM,53.8,32.9,45,29.85,10.0,SSW,2.3,-,N/A,,Clear,200,2013-07-12 08:58:00
2:58 AM,56.5,32.0,39,29.84,10.0,SE,4.6,-,N/A,,Clear,130,2013-07-12 09:58:00
3:58 AM,52.2,40.8,65,29.86,10.0,South,6.9,-,N/A,,Clear,190,2013-07-12 10:58:00
4:58 AM,52.9,36.0,53,29.87,10.0,SSW,8.1,-,N/A,,Clear,200,2013-07-12 11:58:00
5:58 AM,53.6,34.3,48,29.88,10.0,SSW,5.8,-,N/A,,Clear,200,2013-07-12 12:58:00
6:58 AM,53.8,36.9,53,29.88,10.0,South,6.9,-,N/A,,Mostly Cloudy,180,2013-07-12 13:58:00
7:58 AM,55.9,37.6,50,29.90,10.0,South,4.6,-,N/A,,Overcast,170,2013-07-12 14:58:00
8:58 AM,57.9,40.1,52,29.92,10.0,South,5.8,-,N/A,,Overcast,180,2013-07-12 15:58:00
9:58 AM,61.9,36.3,39,29.92,10.0,SSW,6.9,-,N/A,,Overcast,210,2013-07-12 16:58:00
10:58 AM,66.2,36.1,33,29.92,10.0,Variable,3.5,-,N/A,,Mostly Cloudy,0,2013-07-12 17:58:00
11:58 AM,69.3,35.4,29,29.92,8.0,SSW,6.9,-,N/A,,Overcast,210,2013-07-12 18:58:00
12:58 PM,70.9,31.8,24,29.92,10.0,SW,9.2,-,N/A,,Overcast,220,2013-07-12 19:58:00
1:58 PM,73.2,33.1,23,29.91,10.0,SW,6.9,-,N/A,,Overcast,220,2013-07-12 20:58:00
2:58 PM,74.1,32.7,22,29.90,10.0,West,10.4,17.3,N/A,,Partly Cloudy,270,2013-07-12 21:58:00
3:58 PM,73.6,32.9,23,29.91,10.0,WNW,9.2,-,N/A,,Mostly Cloudy,290,2013-07-12 22:58:00
4:58 PM,74.3,30.9,20,29.89,10.0,West,9.2,-,N/A,,Mostly Cloudy,270,2013-07-12 23:58:00
5:58 PM,71.2,28.4,20,29.90,10.0,West,8.1,-,N/A,,Partly Cloudy,270,2013-07-13 00:58:00
6:58 PM,69.4,31.5,24,29.90,10.0,West,8.1,-,N/A,,Mostly Cloudy,260,2013-07-13 01:58:00
8:56 PM,62.6,35.6,37,29.94,10.0,NW,8.1,-,N/A,,Overcast,310,2013-07-13 03:56:00
9:56 PM,60.8,37.4,42,29.95,10.0,NW,5.8,-,N/A,,Overcast,320,2013-07-13 04:56:00
10:56 PM,59.0,39.2,48,29.96,10.0,WNW,4.6,-,N/A,,Overcast,300,2013-07-13 05:56:00
11:56 PM,55.4,39.2,54,29.98,10.0,West,4.6,-,N/A,,Clear,270,2013-07-13 06:56:00